Location: Hermaringen
(48.5952°N, 10.2585°E)
Time: 13:36:13
(UTC+00:00)

SR - Pass Details

Date: 20 February 2026
Orbit: 572 x 849 km, 66.7° (Epoch: 12 March)

Event Time Altitude Azimuth Distance (km) Brightness Sun altitude
Rises 04:24:14 0° 236° (WSW) 2,785 - -19.5°
Reaches altitude 10° 04:26:31 10° 245° (WSW) 1,906 - -19.1°
Exits shadow 04:29:59 37° 296° (WNW) 942 ? -18.5°
Maximum altitude 04:30:32 39° 315° (NW) 918 ? -18.4°
Drops below altitude 10° 04:34:47 10° 24° (NNE) 2,024 ? -17.7°
Sets 04:37:17 0° 33° (NNE) 2,982 ? -17.3°
